Location: Alumbaugh
(37.5976°N, 83.9299°W)
Time: 11:22:21
(UTC+00:00)

N. Korean satellite - Visible Passes

Search period start: 28 November 2022 00:00
Search period end: 08 December 2022 00:00
Orbit: 422 x 454 km, 97.3° (Epoch: 28 November)

Date Brightness Start Highest point End Pass type
(mag) Time Alt. Az. Time Alt. Az. Time Alt. Az.
28 Nov 7.6 10:33:07 10° NNE 10:36:24 42° E 10:39:38 10° S visible
29 Nov 9.8 09:55:57 10° ENE 09:57:33 13° E 09:59:07 10° ESE visible
29 Nov 7.3 11:27:08 10° NNW 11:30:07 28° WNW 11:33:04 10° SW visible
30 Nov 6.5 10:48:06 10° NNE 10:51:31 74° E 10:54:53 10° S visible
30 Nov 9.2 22:48:25 10° SSW 22:51:08 23° W 22:53:54 10° NW visible
01 Dec 9.1 10:10:06 10° NE 10:12:40 20° E 10:15:13 10° SE visible
01 Dec 7.8 11:42:37 10° NNW 11:45:02 18° WNW 11:47:26 10° WSW visible
02 Dec 6.3 11:03:04 10° N 11:06:27 64° WNW 11:09:47 10° SSW visible
02 Dec 9.7 23:04:09 10° SW 23:06:08 15° W 23:08:08 10° WNW visible
03 Dec 8.3 10:24:32 10° NNE 10:27:37 31° E 10:30:38 10° SSE visible
03 Dec 8.3 11:58:24 10° NW 11:59:46 12° WNW 12:01:08 10° W visible
04 Dec 6.8 11:18:01 10° N 11:21:12 38° WNW 11:24:19 10° SW visible
05 Dec 7.2 10:39:02 10° NNE 10:42:22 52° E 10:45:37 10° S visible
06 Dec 9.6 10:01:18 10° ENE 10:03:16 15° E 10:05:13 10° SE visible
06 Dec 7.5 11:32:58 10° NNW 11:35:45 24° WNW 11:38:30 10° SW visible
07 Dec 6.3 10:53:32 10° NNE 10:56:56 89° ESE 11:00:15 10° SSW visible
07 Dec 9.5 22:53:53 10° SW 22:56:26 20° W 22:59:01 10° NW visible
